Location: Innsbruck
(47.2657°N, 11.3914°E)
Time: 13:04:09
(UTC+01:00)

BEESAT - Visible Passes

Search period start: 06 December 2021 00:00
Search period end: 16 December 2021 00:00
Orbit: 700 x 707 km, 98.6° (Epoch: 05 December)

Date Brightness Start Highest point End Pass type
(mag) Time Alt. Az. Time Alt. Az. Time Alt. Az.
06 Dec ? 05:41:11 10° ESE 05:44:27 19° ENE 05:47:44 10° NNE visible
07 Dec ? 06:22:48 10° SE 06:27:15 41° ENE 06:31:45 10° N visible
08 Dec ? 05:30:31 10° E 05:33:14 15° ENE 05:35:56 10° NNE visible
08 Dec ? 07:05:33 10° SSE 07:10:19 82° WSW 07:15:09 10° NNW visible
09 Dec ? 06:11:43 10° SE 06:15:57 33° ENE 06:20:13 10° N visible
10 Dec ? 05:20:07 10° ENE 05:22:01 12° NE 05:23:55 10° NNE visible
10 Dec ? 06:54:11 10° SSE 06:58:57 79° ENE 07:03:45 10° NNW visible
11 Dec ? 06:00:43 10° ESE 06:04:40 27° ENE 06:08:39 10° N visible
12 Dec ? 06:42:54 10° SSE 06:47:36 62° ENE 06:52:20 10° N visible
13 Dec ? 05:49:49 10° ESE 05:53:24 22° ENE 05:57:00 10° NNE visible
14 Dec ? 06:31:41 10° SE 06:36:15 48° ENE 06:40:52 10° N visible
15 Dec ? 05:39:03 10° E 05:42:10 18° ENE 05:45:17 10° NNE visible
15 Dec ? 07:14:36 10° S 07:19:21 70° WSW 07:24:10 10° NNW visible
